SCP
1 1 1 1 1 1 2 2 2 2 2 2 2 2 2 2 2 2 1 1 1 1 1 1 1 1 1 1 1 1 1 1 1 1 1 1 1 1 1 1 1 1 1
1 1 1 1 1 1 2 2 2 2 2 2 2 2 2 2 2 1 1 1 1 1 1 1 1 1 1 1 1 1 1 1 1 1 1 1 1 0 1 1 0 0 0
1 1 1 1 1 1 1 2 2 2 2 3 3 2 2 2 1 1 1 1 1 1 1 1 1 1 1 1 1 1 1 1 1 1 1 1 0 0 0 0 0 0 0
2 2 2 2 1 1 1 2 2 2 3 3 3 2 2 1 1 1 1 1 1 1 1 1 1 1 1 1 1 1 1 1 1 1 1 1 0 0 0 0 0 0 0
2 2 2 2 2 2 2 2 2 3 3 3 4 3 2 2 1 1 1 1 1 1 1 1 1 1 1 1 1 1 2 2 1 1 1 1 0 0 0 0 0 0 0
3 3 3 3 3 3 3 3 3 3 4 4 4 4 3 2 2 2 1 1 1 1 1 1 1 1 1 1 1 1 1 1 1 1 1 1 1 0 0 0 0 0 0
3 4 4 4 4 4 4 4 4 4 5 5 5 5 4 3 2 2 1 1 1 2 1 1 1 1 1 1 1 1 1 1 1 1 1 1 1 0 0 0 0 0 0
4 4 5 5 6 5 5 5 5 5 5 6 6 6 5 4 3 2 1 1 1 2 2 1 1 1 1 1 1 1 1 0 0 0 0 0 0 0 0 0 0 0 0
5 5 5 6 7 7 7 6 6 6 6 6 5 5 5 5 4 3 2 1 1 1 2 1 1 1 1 1 1 1 1 0 0 0 0 0 0 0 0 0 0 0 0
5 5 6 7 8 8 7 7 6 6 6 5 4 4 5 5 5 3 2 2 2 1 2 2 1 1 1 1 1 1 1 1 1 0 0 0 0 0 0 0 0 0 0
5 6 7 8 8 7 7 6 6 6 5 4 4 4 4 5 5 3 2 2 2 2 2 2 1 1 1 0 0 1 1 1 1 1 0 0 0 0 0 0 0 0 0
5 6 8 8 8 8 8 7 7 6 6 5 4 4 4 4 4 4 2 2 2 3 3 2 2 1 0 0 0 0 0 1 1 1 1 1 1 1 1 0 0 0 0
4 6 8 9 10 10 10 9 8 8 8 7 6 5 4 5 5 4 2 1 2 3 3 3 2 1 0 0 0 0 0 1 1 1 1 1 1 1 1 1 1 0 0
5 6 8 10 11 12 11 11 10 10 10 10 8 6 6 6 5 5 4 2 1 2 3 2 1 0 0 0 1 1 1 1 1 2 2 2 1 1 1 1 1 1 1
5 7 9 11 12 12 12 11 10 10 10 9 8 7 7 7 6 6 5 3 2 2 2 1 1 1 1 1 1 1 1 1 1 1 2 2 2 1 1 1 1 1 1
6 7 11 13 14 14 14 11 8 7 6 5 5 5 6 6 5 5 4 2 1 1 1 2 2 2 1 1 1 1 1 1 1 1 1 2 2 2 1 1 1 1 0
5 6 10 13 15 15 13 9 5 3 2 2 2 2 3 3 2 2 1 1 0 0 1 2 2 3 3 2 2 2 1 1 1 1 1 1 1 1 1 1 1 1 1
4 4 6 10 12 11 9 6 4 2 1 1 1 1 1 1 0 0 0 0 1 1 1 2 2 3 3 4 4 3 2 2 2 1 1 1 1 1 2 2 1 1 1
3 3 3 5 7 7 5 4 3 2 1 1 1 0 0 0 0 0 0 1 1 1 2 2 2 2 2 3 4 4 3 2 2 2 1 1 1 1 2 2 2 1 1
2 1 2 2 4 4 4 3 2 1 1 1 0 0 0 0 1 1 1 2 2 3 3 2 2 2 2 2 3 3 3 2 2 2 1 1 1 1 1 2 2 2 1
1 1 1 1 2 2 2 2 1 0 0 0 0 0 0 0 1 1 1 2 2 3 3 3 3 2 2 2 2 2 2 2 2 2 1 1 1 1 1 1 1 1 1
1 1 1 1 1 1 1 1 1 1 0 0 0 0 0 0 0 0 1 2 2 2 3 4 3 3 2 2 2 2 1 1 1 2 2 1 1 1 1 1 1 1 1
2 1 1 1 1 0 0 1 1 1 1 1 0 0 0 0 0 0 1 1 2 2 3 4 4 3 3 2 2 1 1 1 1 1 1 1 1 1 1 1 1 1 1
1 1 1 1 0 0 0 1 1 2 2 1 1 0 0 0 0 0 0 1 2 3 3 4 4 4 3 2 2 1 1 1 1 1 1 1 1 1 1 1 0 0 0
1 1 1 1 0 0 0 1 1 2 2 2 1 0 0 0 0 0 0 0 1 2 3 4 4 4 3 2 1 0 0 0 0 0 0 0 0 0 0 0 0 0 0
1 1 1 1 0 0 0 0 1 1 2 1 1 0 0 0 0 0 0 0 1 2 3 4 4 4 3 2 1 0 0 0 0 0 0 0 0 0 0 0 0 0 0
Wind_Speed
5 4 4 3 3 2 2 2 1 1 1 1 1 1 1 2 1 1 1 1 1 1 1 0 0 1 1 1 1 1 2 2 2 0 1 1 1 2 2 2 3 2 3
5 5 4 3 3 3 2 1 2 2 2 2 2 2 2 2 2 2 1 1 1 1 1 1 1 1 1 1 1 1 2 2 3 2 1 1 1 1 2 2 2 2 2
6 5 4 4 3 3 2 2 2 2 2 2 2 2 1 2 2 2 2 2 2 1 1 1 1 2 1 1 1 1 1 2 2 2 1 1 1 2 2 2 2 2 2
6 6 5 5 4 3 3 3 2 2 2 2 1 1 1 2 2 2 2 2 2 2 2 2 2 2 1 1 1 1 2 2 3 3 2 1 1 1 2 2 1 1 1
7 6 5 5 4 4 3 3 3 3 2 2 2 2 2 2 1 1 1 2 2 2 3 2 2 3 3 2 1 2 2 2 2 2 2 1 1 1 1 1 2 1 1
7 6 5 4 4 4 4 3 3 3 2 3 2 2 2 1 2 3 2 2 2 2 2 2 3 3 4 4 4 4 4 3 3 2 2 2 1 2 1 2 2 1 1
7 6 6 5 5 4 4 4 4 3 3 2 2 2 1 1 2 3 3 2 3 2 2 2 2 2 3 3 4 6 5 5 3 3 2 1 1 1 2 2 2 2 1
7 6 6 6 6 5 5 4 4 3 3 2 2 2 1 1 2 3 3 3 3 2 2 2 1 2 2 2 3 4 4 3 3 2 2 1 1 1 2 3 3 2 1
7 6 6 6 6 6 5 4 3 4 3 2 2 2 1 1 1 3 3 2 2 3 3 3 2 2 3 3 4 3 3 3 4 5 4 4 4 4 3 2 2 2 1
7 7 6 6 6 6 5 5 3 4 3 3 2 2 1 1 2 3 3 2 2 2 2 3 4 3 3 3 3 3 2 1 2 3 4 4 4 4 4 2 2 1 1
6 6 6 6 6 6 5 4 4 4 4 3 3 2 2 1 2 3 3 2 2 2 2 2 2 4 4 3 2 2 2 2 2 3 3 3 3 3 2 1 0 1 1
6 7 6 6 5 5 5 4 4 5 5 4 3 2 1 1 2 2 4 3 3 3 1 1 2 5 5 4 3 4 4 3 3 3 3 2 2 1 1 1 1 1 0
7 6 6 6 5 5 5 5 4 3 3 3 3 2 1 1 1 2 3 4 4 2 2 3 4 5 5 4 5 5 4 3 3 3 2 1 1 1 1 1 2 1 1
7 6 5 6 5 4 3 3 4 3 3 3 3 2 1 0 0 0 1 2 3 3 2 3 5 5 4 4 4 3 3 2 2 2 1 1 1 2 2 1 1 1 1
7 6 5 5 5 4 3 2 3 2 3 3 3 3 3 2 2 2 2 2 2 2 3 2 2 2 2 2 2 2 2 2 2 1 1 1 1 1 1 1 1 1 1
6 5 4 4 4 4 4 3 5 3 3 3 3 3 2 2 3 3 3 4 4 5 4 2 1 1 1 1 1 1 1 1 1 1 1 1 1 1 1 1 1 1 1
6 5 4 4 4 4 4 4 3 3 4 4 3 3 3 3 4 4 5 6 6 5 3 2 1 1 1 1 1 1 1 0 0 1 1 1 1 1 1 1 1 1 1
6 6 5 4 4 4 4 4 4 3 2 1 2 2 3 3 3 5 6 6 4 2 1 2 2 1 1 1 1 1 1 0 1 1 1 1 1 1 1 1 1 1 2
6 4 4 4 4 4 4 4 3 3 3 2 1 1 2 3 3 4 4 2 3 2 2 1 1 2 2 2 2 1 1 1 0 0 0 0 0 0 0 1 1 1 1
5 7 6 5 4 4 4 4 3 3 3 3 3 2 2 2 2 2 2 2 2 2 2 2 2 2 2 1 1 1 1 1 1 0 0 0 0 1 1 1 1 1 2
5 6 7 5 4 4 4 4 4 3 3 3 3 3 4 3 3 3 2 2 3 3 2 2 2 2 2 2 1 1 1 1 0 0 1 1 1 1 1 2 2 2 2
4 4 5 5 4 4 4 4 4 4 4 4 2 2 4 2 2 2 2 2 2 2 3 3 3 2 2 2 2 2 2 1 1 1 1 1 1 1 1 1 2 2 2
5 5 4 4 4 5 4 4 4 4 4 4 3 3 3 3 3 2 2 2 2 2 2 2 2 2 2 2 2 2 2 2 2 2 2 1 1 1 1 1 2 2 2
5 6 5 5 4 4 4 4 4 4 4 4 4 4 4 3 3 3 3 2 2 2 2 2 2 3 3 2 1 2 1 2 2 2 3 2 2 2 2 2 2 2 2
5 5 5 5 5 5 5 4 4 4 4 4 4 4 4 4 4 3 3 3 3 3 3 2 2 2 3 3 2 2 1 2 2 2 2 2 3 2 2 2 2 2 2
5 6 5 5 5 5 5 4 4 4 4 4 4 4 4 4 4 4 3 3 3 3 3 2 3 3 3 3 3 2 2 1 1 2 2 2 2 2 2 2 2 2 2
Wind_Direction
167 165 161 165 160 157 151 162 166 143 123 113 108 89 68 49 46 72 54 44 40 354 351 77 356 68 96 98 138 155 162 162 177 203 98 92 117 120 100 98 93 88 83
166 159 160 157 148 152 148 146 131 119 106 111 107 95 79 58 53 63 54 52 58 24 3 39 22 66 78 83 110 133 148 164 166 169 113 88 99 118 109 107 96 98 89
158 156 155 152 153 158 154 137 121 116 104 101 102 97 77 65 63 61 69 64 65 46 30 43 30 76 71 79 99 110 123 131 136 145 128 92 85 92 96 91 87 71 85
158 159 161 167 167 163 148 133 129 128 124 124 115 104 86 75 66 63 76 66 56 44 35 39 44 70 67 78 90 94 108 114 123 125 119 104 95 89 113 125 109 76 65
157 161 173 169 156 146 137 135 130 128 135 128 110 93 83 86 66 77 84 78 65 49 38 35 47 64 62 70 96 111 117 113 116 119 120 115 119 122 158 163 153 123 85
156 161 164 154 149 148 145 138 128 123 119 109 108 106 93 85 68 89 106 81 72 62 44 30 36 45 57 63 74 86 110 127 140 135 142 158 186 188 164 156 143 142 179
159 158 159 156 154 154 149 138 139 139 127 120 122 119 118 77 80 89 92 89 73 58 44 35 32 41 58 63 67 71 73 81 109 142 148 178 188 199 170 162 166 172 184
161 161 157 156 156 150 144 146 146 138 137 142 136 136 127 78 95 107 104 90 70 50 40 39 52 29 43 77 88 74 63 53 64 101 124 131 130 175 182 175 175 162 111
158 160 158 156 155 154 154 155 147 137 134 135 130 128 125 21 73 118 114 92 69 45 32 34 44 45 46 83 97 91 70 48 63 76 77 70 69 77 100 122 125 134 165
161 158 153 152 155 155 156 148 138 139 141 130 106 90 102 72 74 106 124 116 91 58 35 32 40 53 55 79 112 114 97 51 51 58 52 46 53 65 71 104 155 159 152
146 139 137 140 142 143 140 133 132 131 125 117 104 75 60 53 66 84 111 123 128 106 70 38 36 56 62 67 92 104 124 113 83 78 63 50 47 48 46 59 115 173 172
135 133 133 134 134 134 131 127 130 134 130 125 114 91 50 34 61 90 105 120 130 125 120 84 73 72 67 65 78 82 84 88 86 80 69 50 36 23 10 21 58 97 143
131 134 135 129 124 131 136 135 130 134 140 143 147 148 108 36 48 85 107 117 125 126 114 104 91 82 78 71 65 69 76 81 88 84 70 42 15 1 15 30 42 54 48
138 137 134 129 124 119 121 134 141 147 150 155 161 164 157 128 84 73 94 106 106 111 99 86 83 76 71 65 62 60 59 66 85 89 71 35 24 32 36 26 29 21 28
142 140 137 135 133 122 112 119 143 150 169 170 176 173 172 192 219 181 159 145 142 140 115 83 71 71 69 63 57 55 58 62 63 60 62 57 46 33 17 10 18 30 29
143 145 145 143 139 134 128 97 62 90 114 130 149 159 182 183 158 141 140 133 126 128 112 104 103 99 103 95 78 62 65 65 59 76 73 72 55 39 26 29 29 24 5
149 153 152 150 148 142 143 143 121 64 72 87 110 126 132 143 139 139 129 114 113 124 118 131 142 165 168 142 125 122 99 78 98 107 91 66 62 54 41 20 13 358 338
145 154 153 152 153 152 152 154 150 148 141 74 49 88 117 134 141 142 132 113 97 108 144 156 168 180 175 164 160 165 165 133 124 128 127 118 103 87 50 19 1 337 323
147 151 150 147 148 149 147 148 153 158 159 150 117 85 104 108 107 128 138 132 151 163 179 190 190 183 178 173 168 165 161 164 144 146 140 134 159 163 245 289 301 313 307
153 155 151 148 148 148 151 158 163 166 168 171 183 182 156 136 134 145 162 172 178 185 187 189 191 188 184 176 165 157 153 163 167 182 225 253 261 254 262 272 279 284 287
155 157 153 150 156 163 168 173 172 173 180 191 200 194 178 175 178 181 179 183 193 197 195 191 191 188 181 171 169 168 176 198 210 236 258 262 256 258 264 270 276 280 288
158 160 163 165 168 172 175 175 175 180 186 192 188 173 174 175 173 171 181 195 201 201 197 188 187 191 188 186 189 193 199 213 234 245 252 249 246 262 273 281 288 288 287
163 164 165 165 167 166 168 173 179 185 186 187 181 173 172 181 182 181 189 197 191 186 183 180 182 181 180 191 201 205 211 223 234 237 240 247 252 260 267 277 286 295 293
171 169 169 168 169 172 176 180 185 186 186 187 186 184 183 183 185 186 190 187 183 180 175 176 178 179 180 182 188 198 218 238 241 234 230 232 238 245 251 262 272 281 283
170 169 171 173 177 179 180 183 185 185 187 187 186 186 184 180 182 184 181 176 176 177 176 174 177 186 195 199 204 217 230 240 245 246 232 226 233 244 252 260 268 279 282
170 171 171 175 179 180 180 183 184 186 189 186 185 186 183 183 183 181 178 175 176 180 184 188 193 198 205 213 218 223 228 236 241 236 220 214 224 240 248 251 263 266 272